Time,TemperatureF,DewpointF,PressureIn,WindDirection,WindDirectionDegrees,WindSpeedMPH,WindSpeedGustMPH,Humidity,HourlyPrecipIn,Conditions,Clouds,dailyrainin,SoftwareType,DateUTC
2013-08-26 00:13:00,66.7,66.1,30.14,South,180,2.7,-999.0,98,-99.99,,,0.00,Acu-Link.com,2013-08-26 04:13:00,
2013-08-26 00:28:00,66.4,65.8,30.14,South,180,3.7,-999.0,98,-99.99,,,0.00,Acu-Link.com,2013-08-26 04:28:00,
2013-08-26 00:43:00,66.0,65.4,30.14,South,180,4.2,-999.0,98,-99.99,,,0.00,Acu-Link.com,2013-08-26 04:43:00,
2013-08-26 00:58:00,66.0,65.4,30.14,South,180,2.7,-999.0,98,-99.99,,,0.00,Acu-Link.com,2013-08-26 04:58:00,
2013-08-26 01:13:00,65.5,64.9,30.15,SW,225,4.7,-999.0,98,-99.99,,,0.00,Acu-Link.com,2013-08-26 05:13:00,
2013-08-26 01:28:00,65.3,64.7,30.12,SW,225,4.2,-999.0,98,-99.99,,,0.00,Acu-Link.com,2013-08-26 05:28:00,
2013-08-26 01:43:00,65.1,64.5,30.12,South,180,5.3,-999.0,98,-99.99,,,0.00,Acu-Link.com,2013-08-26 05:43:00,
2013-08-26 01:58:00,64.9,64.3,30.10,SW,225,5.3,-999.0,98,-99.99,,,0.00,Acu-Link.com,2013-08-26 05:58:00,
2013-08-26 02:16:00,64.9,64.3,30.12,NW,315,0.0,-999.0,98,-99.99,,,0.00,Acu-Link.com,2013-08-26 06:16:00,
2013-08-26 02:31:00,64.2,63.6,30.13,SSW,202,3.7,-999.0,98,-99.99,,,0.00,Acu-Link.com,2013-08-26 06:31:00,
2013-08-26 02:46:00,64.0,63.4,30.11,SW,225,4.7,-999.0,98,-99.99,,,0.00,Acu-Link.com,2013-08-26 06:46:00,
2013-08-26 03:01:00,63.7,63.1,30.11,SW,225,3.2,-999.0,98,-99.99,,,0.00,Acu-Link.com,2013-08-26 07:01:00,
2013-08-26 03:16:00,63.7,63.1,30.11,SW,225,3.7,-999.0,98,-99.99,,,0.00,Acu-Link.com,2013-08-26 07:16:00,
2013-08-26 03:32:00,63.5,62.9,30.11,SSW,202,2.7,-999.0,98,-99.99,,,0.00,Acu-Link.com,2013-08-26 07:32:00,
2013-08-26 03:47:00,63.5,62.9,30.11,SSW,202,3.2,-999.0,98,-99.99,,,0.00,Acu-Link.com,2013-08-26 07:47:00,
2013-08-26 04:02:00,63.7,63.1,30.11,WSW,247,4.2,-999.0,98,-99.99,,,0.00,Acu-Link.com,2013-08-26 08:02:00,
2013-08-26 04:18:00,63.5,62.9,30.10,WSW,247,3.2,-999.0,98,-99.99,,,0.00,Acu-Link.com,2013-08-26 08:18:00,
2013-08-26 04:33:00,63.3,62.7,30.10,WSW,247,2.7,-999.0,98,-99.99,,,0.00,Acu-Link.com,2013-08-26 08:33:00,
2013-08-26 04:48:00,63.1,62.5,30.11,SW,225,4.7,-999.0,98,-99.99,,,0.00,Acu-Link.com,2013-08-26 08:48:00,
2013-08-26 05:03:00,63.1,62.5,30.10,SSE,157,3.7,-999.0,98,-99.99,,,0.00,Acu-Link.com,2013-08-26 09:03:00,
2013-08-26 05:19:00,62.8,62.2,30.11,SE,135,2.7,-999.0,98,-99.99,,,0.00,Acu-Link.com,2013-08-26 09:19:00,
2013-08-26 05:34:00,62.6,62.0,30.10,WSW,247,4.2,-999.0,98,-99.99,,,0.00,Acu-Link.com,2013-08-26 09:34:00,
2013-08-26 05:49:00,62.2,61.6,30.11,SSW,202,2.2,-999.0,98,-99.99,,,0.00,Acu-Link.com,2013-08-26 09:49:00,
2013-08-26 06:04:00,61.9,61.3,30.11,SW,225,1.7,-999.0,98,-99.99,,,0.00,Acu-Link.com,2013-08-26 10:04:00,
2013-08-26 06:19:00,61.9,61.3,30.11,SSW,202,2.7,-999.0,98,-99.99,,,0.00,Acu-Link.com,2013-08-26 10:19:00,
2013-08-26 06:35:00,61.9,61.3,30.10,SSE,157,2.7,-999.0,98,-99.99,,,0.00,Acu-Link.com,2013-08-26 10:35:00,
2013-08-26 06:50:00,61.9,61.3,30.10,SW,225,4.7,-999.0,98,-99.99,,,0.00,Acu-Link.com,2013-08-26 10:50:00,
2013-08-26 07:05:00,62.2,61.6,30.11,SSE,157,3.7,-999.0,98,-99.99,,,0.00,Acu-Link.com,2013-08-26 11:05:00,
2013-08-26 07:21:00,63.1,62.5,30.12,SSW,202,2.2,-999.0,98,-99.99,,,0.00,Acu-Link.com,2013-08-26 11:21:00,
2013-08-26 07:36:00,65.1,64.5,30.14,SW,225,1.1,-999.0,98,-99.99,,,0.00,Acu-Link.com,2013-08-26 11:36:00,
2013-08-26 07:51:00,68.0,67.4,30.12,SSW,202,2.7,-999.0,98,-99.99,,,0.00,Acu-Link.com,2013-08-26 11:51:00,
2013-08-26 08:06:00,70.0,69.4,30.14,ESE,112,2.2,-999.0,98,-99.99,,,0.00,Acu-Link.com,2013-08-26 12:06:00,
2013-08-26 08:22:00,71.8,71.2,30.12,WSW,247,2.2,-999.0,98,-99.99,,,0.00,Acu-Link.com,2013-08-26 12:22:00,
2013-08-26 08:37:00,74.3,73.7,30.10,SSE,157,3.2,-999.0,98,-99.99,,,0.00,Acu-Link.com,2013-08-26 12:37:00,
2013-08-26 08:52:00,75.6,75.0,30.12,SW,225,1.7,-999.0,98,-99.99,,,0.00,Acu-Link.com,2013-08-26 12:52:00,
2013-08-26 09:07:00,79.5,78.9,30.12,SSE,157,1.7,-999.0,98,-99.99,,,0.00,Acu-Link.com,2013-08-26 13:07:00,
2013-08-26 09:23:00,77.7,77.1,30.11,SW,225,0.0,-999.0,98,-99.99,,,0.00,Acu-Link.com,2013-08-26 13:23:00,
2013-08-26 09:38:00,78.4,77.8,30.11,WNW,292,0.0,-999.0,98,-99.99,,,0.00,Acu-Link.com,2013-08-26 13:38:00,
2013-08-26 09:53:00,79.3,78.7,30.10,WNW,292,3.7,-999.0,98,-99.99,,,0.00,Acu-Link.com,2013-08-26 13:53:00,
2013-08-26 10:08:00,81.7,81.1,30.10,West,270,3.2,-999.0,98,-99.99,,,0.00,Acu-Link.com,2013-08-26 14:08:00,
2013-08-26 10:23:00,80.6,80.0,30.12,North,0,0.0,-999.0,98,-99.99,,,0.00,Acu-Link.com,2013-08-26 14:23:00,
2013-08-26 10:39:00,79.9,79.3,30.10,SSW,202,3.2,-999.0,98,-99.99,,,0.00,Acu-Link.com,2013-08-26 14:39:00,
2013-08-26 10:54:00,83.1,79.5,30.10,SSE,157,4.2,-999.0,89,-99.99,,,0.00,Acu-Link.com,2013-08-26 14:54:00,
2013-08-26 11:09:00,83.8,79.1,30.10,SSW,202,5.3,-999.0,86,-99.99,,,0.00,Acu-Link.com,2013-08-26 15:09:00,
2013-08-26 11:24:00,85.8,80.4,30.09,North,0,1.7,-999.0,84,-99.99,,,0.00,Acu-Link.com,2013-08-26 15:24:00,
2013-08-26 11:40:00,85.3,79.9,30.08,South,180,2.7,-999.0,84,-99.99,,,0.00,Acu-Link.com,2013-08-26 15:40:00,
2013-08-26 11:55:00,87.3,80.0,30.08,SSW,202,4.2,-999.0,79,-99.99,,,0.00,Acu-Link.com,2013-08-26 15:55:00,
2013-08-26 12:10:00,89.2,80.6,30.08,SW,225,3.7,-999.0,76,-99.99,,,0.00,Acu-Link.com,2013-08-26 16:10:00,
2013-08-26 12:25:00,89.2,81.0,30.07,ESE,112,1.7,-999.0,77,-99.99,,,0.00,Acu-Link.com,2013-08-26 16:25:00,
2013-08-26 12:41:00,90.5,81.5,30.09,West,270,1.7,-999.0,75,-99.99,,,0.00,Acu-Link.com,2013-08-26 16:41:00,
2013-08-26 12:56:00,89.8,80.0,30.05,West,270,3.7,-999.0,73,-99.99,,,0.00,Acu-Link.com,2013-08-26 16:56:00,
2013-08-26 13:11:00,90.1,80.2,30.06,West,270,5.3,-999.0,73,-99.99,,,0.00,Acu-Link.com,2013-08-26 17:11:00,
2013-08-26 13:26:00,90.7,80.4,30.04,SSW,202,8.3,-999.0,72,-99.99,,,0.00,Acu-Link.com,2013-08-26 17:26:00,
2013-08-26 13:41:00,91.4,81.9,30.04,SSW,202,2.2,-999.0,74,-99.99,,,0.00,Acu-Link.com,2013-08-26 17:41:00,
2013-08-26 13:56:00,91.2,80.4,30.02,SW,225,3.7,-999.0,71,-99.99,,,0.00,Acu-Link.com,2013-08-26 17:56:00,
2013-08-26 14:12:00,90.5,79.8,30.02,SW,225,2.2,-999.0,71,-99.99,,,0.00,Acu-Link.com,2013-08-26 18:12:00,
2013-08-26 14:27:00,90.9,80.6,30.02,South,180,7.3,-999.0,72,-99.99,,,0.00,Acu-Link.com,2013-08-26 18:27:00,
2013-08-26 14:42:00,90.1,79.4,30.01,South,180,10.9,-999.0,71,-99.99,,,0.00,Acu-Link.com,2013-08-26 18:42:00,
2013-08-26 14:57:00,90.5,80.2,30.00,SW,225,6.8,-999.0,72,-99.99,,,0.00,Acu-Link.com,2013-08-26 18:57:00,
2013-08-26 15:12:00,90.1,79.0,30.01,SW,225,6.3,-999.0,70,-99.99,,,0.00,Acu-Link.com,2013-08-26 19:12:00,
2013-08-26 15:27:00,90.7,79.1,29.98,WNW,292,2.7,-999.0,69,-99.99,,,0.00,Acu-Link.com,2013-08-26 19:27:00,
2013-08-26 15:43:00,87.4,76.8,29.98,SSW,202,5.3,-999.0,71,-99.99,,,0.00,Acu-Link.com,2013-08-26 19:43:00,
2013-08-26 15:58:00,86.5,76.8,29.98,SSE,157,0.0,-999.0,73,-99.99,,,0.00,Acu-Link.com,2013-08-26 19:58:00,
2013-08-26 16:13:00,88.5,78.7,29.98,ESE,112,1.1,-999.0,73,-99.99,,,0.00,Acu-Link.com,2013-08-26 20:13:00,
2013-08-26 16:28:00,87.1,78.6,29.97,SW,225,3.7,-999.0,76,-99.99,,,0.00,Acu-Link.com,2013-08-26 20:28:00,
2013-08-26 16:43:00,86.4,78.3,29.94,South,180,4.7,-999.0,77,-99.99,,,0.00,Acu-Link.com,2013-08-26 20:43:00,
2013-08-26 16:58:00,85.6,78.7,29.95,South,180,1.7,-999.0,80,-99.99,,,0.00,Acu-Link.com,2013-08-26 20:58:00,
2013-08-26 17:14:00,84.7,77.4,29.95,NW,315,4.2,-999.0,79,-99.99,,,0.00,Acu-Link.com,2013-08-26 21:14:00,
2013-08-26 17:29:00,85.8,78.1,29.95,SSW,202,2.2,-999.0,78,-99.99,,,0.00,Acu-Link.com,2013-08-26 21:29:00,
2013-08-26 17:44:00,84.2,78.1,29.95,West,270,3.7,-999.0,82,-99.99,,,0.00,Acu-Link.com,2013-08-26 21:44:00,
2013-08-26 17:59:00,85.1,78.2,29.94,SSE,157,1.7,-999.0,80,-99.99,,,0.00,Acu-Link.com,2013-08-26 21:59:00,
2013-08-26 18:14:00,83.7,78.3,29.94,SSE,157,5.8,-999.0,84,-99.99,,,0.00,Acu-Link.com,2013-08-26 22:14:00,
2013-08-26 18:35:00,85.1,78.6,29.92,South,180,2.7,-999.0,81,-99.99,,,0.00,Acu-Link.com,2013-08-26 22:35:00,
2013-08-26 18:50:00,85.6,79.5,29.92,WSW,247,0.0,-999.0,82,-99.99,,,0.00,Acu-Link.com,2013-08-26 22:50:00,
2013-08-26 19:06:00,84.7,78.9,29.92,West,270,2.2,-999.0,83,-99.99,,,0.00,Acu-Link.com,2013-08-26 23:06:00,
2013-08-26 19:21:00,82.6,79.7,29.92,WSW,247,0.0,-999.0,91,-99.99,,,0.00,Acu-Link.com,2013-08-26 23:21:00,
2013-08-26 19:36:00,81.1,80.5,29.94,WNW,292,0.0,-999.0,98,-99.99,,,0.00,Acu-Link.com,2013-08-26 23:36:00,
2013-08-26 19:51:00,78.8,78.2,29.93,South,180,1.1,-999.0,98,-99.99,,,0.00,Acu-Link.com,2013-08-26 23:51:00,
2013-08-26 20:07:00,77.4,76.8,29.93,NNW,337,2.2,-999.0,98,-99.99,,,0.00,Acu-Link.com,2013-08-27 00:07:00,
2013-08-26 20:22:00,77.0,76.4,29.95,ENE,67,1.1,-999.0,98,-99.99,,,0.00,Acu-Link.com,2013-08-27 00:22:00,
2013-08-26 20:37:00,75.9,75.3,29.96,ENE,67,0.0,-999.0,98,-99.99,,,0.00,Acu-Link.com,2013-08-27 00:37:00,
2013-08-26 20:53:00,75.7,75.1,29.95,South,180,1.1,-999.0,98,-99.99,,,0.00,Acu-Link.com,2013-08-27 00:53:00,
2013-08-26 21:08:00,75.6,75.0,29.95,WNW,292,3.2,-999.0,98,-99.99,,,0.00,Acu-Link.com,2013-08-27 01:08:00,
2013-08-26 21:23:00,75.4,74.8,29.97,West,270,0.0,-999.0,98,-99.99,,,0.00,Acu-Link.com,2013-08-27 01:23:00,
2013-08-26 21:38:00,73.6,73.0,29.97,West,270,3.2,-999.0,98,-99.99,,,0.00,Acu-Link.com,2013-08-27 01:38:00,
2013-08-26 21:53:00,73.6,73.0,29.94,West,270,3.2,-999.0,98,-99.99,,,0.00,Acu-Link.com,2013-08-27 01:53:00,
2013-08-26 22:08:00,73.4,72.8,29.93,SSW,202,5.3,-999.0,98,-99.99,,,0.00,Acu-Link.com,2013-08-27 02:08:00,
2013-08-26 22:24:00,73.6,73.0,29.92,South,180,5.8,-999.0,98,-99.99,,,0.00,Acu-Link.com,2013-08-27 02:24:00,
2013-08-26 22:39:00,73.6,73.0,29.94,South,180,3.7,-999.0,98,-99.99,,,0.00,Acu-Link.com,2013-08-27 02:39:00,
2013-08-26 22:54:00,73.6,73.0,29.93,WNW,292,2.2,-999.0,98,-99.99,,,0.00,Acu-Link.com,2013-08-27 02:54:00,
2013-08-26 23:09:00,72.5,71.9,29.93,WSW,247,0.0,-999.0,98,-99.99,,,0.01,Acu-Link.com,2013-08-27 03:09:00,
2013-08-26 23:24:00,71.6,71.0,29.93,SSW,202,2.2,-999.0,98,-99.99,,,0.01,Acu-Link.com,2013-08-27 03:24:00,
2013-08-26 23:40:00,71.1,70.5,29.92,SSW,202,0.0,-999.0,98,-99.99,,,0.02,Acu-Link.com,2013-08-27 03:40:00,
2013-08-26 23:55:00,70.7,70.1,29.93,NW,315,1.1,-999.0,98,-99.99,,,0.02,Acu-Link.com,2013-08-27 03:55:00,